Weather History for Hattiesburg, MS

Change the Weather History Date:

Friday, July 19, 2013

  Actual Average Record
Temperature  
Mean Temperature 80 °F 82 °F  
Max Temperature 89 °F 92 °F 101 °F (1998)
Min Temperature 70 °F 72 °F 64 °F (2009)
Degree Days  
Heating Degree Days 0 0  
Month to date heating degree days 0 0  
Since 1 June heating degree days 0 0  
Since 1 July heating degree days 0 0  
Cooling Degree Days 15 17  
Month to date cooling degree days 271 318  
Year to date cooling degree days 1083 1156  
Since 1 June cooling degree days 741 741  
Growing Degree Days 29 (Base 50)    
Moisture  
Dew Point 71 °F    
Average Humidity 76    
Maximum Humidity 100    
Minimum Humidity 52    
Precipitation  
Precipitation 0.00 in 0.17 in 1.96 in (2006)
Month to date precipitation 3.96 3.59  
Year to date precipitation 46.25 35.63  
Sea Level Pressure  
Sea Level Pressure 30.03 in    
Wind  
Wind Speed 3 mph (SE)    
Max Wind Speed 20 mph    
Max Gust Speed 28 mph    
Visibility 9 miles    
Events Thunderstorm    
T = Trace of Precipitation, MM = Missing Value Source: NWS Daily Summary

Daily Weather History Graph

Daily Weather History Graph

Search for Another Location

Airport:

Trip Planner

Search our weather history database for the weather conditions in past years. The results will help you decide how hot, cold, wet, or windy it might be!

Date:

Astronomy

Jul. 19, 2013 Rise Set
Actual Time 6:05 AM CDT 8:00 PM CDT
Civil Twilight 5:38 AM CDT 8:27 PM CDT
Nautical Twilight 5:05 AM CDT 9:00 PM CDT
Astronomical Twilight 4:30 AM CDT 9:35 PM CDT
Moon 5:03 PM CDT 2:45 AM CDT
Length of Visible Light 14h 49m
Length of Day
13h 54m
Waxing Gibbous, 87% of the Moon is Illuminated
Jul 19
Waxing Gibbous
Jul 22
Full
Jul 29
Last Quarter
Aug 6
New
Aug 14
First Quarter

Hourly Weather History & Observations

Time (CDT) Temp. Heat Index Dew Point Humidity Pressure Visibility Wind Dir Wind Speed Gust Speed Precip Events Conditions
12:53 AM 73.9 °F - 72.0 °F 93% 30.07 in 10.0 mi East 4.6 mph - N/A   Clear
1:53 AM 73.0 °F - 72.0 °F 96% 30.06 in 10.0 mi North 3.5 mph - N/A   Clear
2:53 AM 72.0 °F - 71.1 °F 97% 30.04 in 9.0 mi Calm Calm - N/A   Clear
3:53 AM 72.0 °F - 70.0 °F 93% 30.04 in 10.0 mi Calm Calm - N/A   Clear
4:53 AM 71.1 °F - 70.0 °F 96% 30.04 in 7.0 mi SE 3.5 mph - N/A   Partly Cloudy
5:11 AM 69.8 °F - 69.8 °F 100% 30.04 in 2.5 mi Calm Calm - N/A   Mostly Cloudy
5:21 AM 69.8 °F - 69.8 °F 100% 30.05 in 7.0 mi Calm Calm - N/A   Mostly Cloudy
5:28 AM 69.8 °F - 69.8 °F 100% 30.05 in 10.0 mi Calm Calm - N/A   Scattered Clouds
5:53 AM 71.1 °F - 69.1 °F 93% 30.05 in 10.0 mi Calm Calm - N/A   Clear
6:53 AM 70.0 °F - 69.1 °F 97% 30.07 in 6.0 mi Calm Calm - N/A   Partly Cloudy
7:53 AM 72.0 °F - 71.1 °F 97% 30.09 in 8.0 mi SE 3.5 mph - N/A   Clear
8:53 AM 78.1 °F - 73.0 °F 84% 30.10 in 10.0 mi Calm Calm - N/A   Clear
9:53 AM 82.0 °F 87.9 °F 73.9 °F 76% 30.09 in 10.0 mi East 3.5 mph - N/A   Clear
10:53 AM 84.0 °F 89.6 °F 72.0 °F 67% 30.09 in 10.0 mi Variable 3.5 mph - N/A   Clear
11:53 AM 87.1 °F 93.6 °F 72.0 °F 61% 30.07 in 10.0 mi Variable 6.9 mph - N/A   Clear
12:53 PM 87.1 °F 92.8 °F 71.1 °F 59% 30.04 in 10.0 mi Variable 5.8 mph - N/A   Partly Cloudy
1:53 PM 89.1 °F 94.1 °F 70.0 °F 53% 30.02 in 10.0 mi Variable 3.5 mph - N/A   Partly Cloudy
2:53 PM 86.0 °F 92.2 °F 72.0 °F 63% 30.01 in 10.0 mi East 4.6 mph - N/A   Clear
3:53 PM 84.9 °F 91.4 °F 73.0 °F 67% 30.00 in 10.0 mi ESE 4.6 mph - N/A   Clear
4:53 PM 87.1 °F 93.6 °F 72.0 °F 61% 29.98 in 10.0 mi SSE 3.5 mph - N/A   Clear
5:17 PM 86.0 °F 91.8 °F 71.6 °F 62% 29.99 in 10.0 mi SE 5.8 mph - N/A Thunderstorm Clear
5:32 PM 82.4 °F 87.2 °F 71.6 °F 70% 29.98 in 10.0 mi SSE 12.7 mph 25.3 mph N/A   Scattered Clouds
5:53 PM 79.0 °F - 71.1 °F 77% 29.98 in 10.0 mi SE 11.5 mph - N/A   Mostly Cloudy
6:53 PM 79.0 °F - 72.0 °F 79% 29.99 in 10.0 mi SE 3.5 mph - N/A   Partly Cloudy
7:53 PM 78.1 °F - 71.1 °F 79% 29.98 in 10.0 mi SSE 4.6 mph - N/A   Clear
8:53 PM 75.9 °F - 73.0 °F 91% 30.00 in 10.0 mi Calm Calm - N/A   Clear
9:53 PM 75.0 °F - 72.0 °F 90% 30.02 in 10.0 mi Calm Calm - N/A   Clear
10:53 PM 73.9 °F - 72.0 °F 93% 30.02 in 10.0 mi Calm Calm - N/A   Clear
11:53 PM 73.0 °F - 71.1 °F 93% 30.01 in 10.0 mi Calm Calm - N/A   Clear